• In Deutschland
  • Länderverzeichnis
  • Für 7 Tage
  • Wassertemperatur
  • Satellitenkarten
  • Wetterkarte
  • Widgets
  • user-avatar
    Anmelden

    Stündliche Wetter Amtzell

    Heute, 20 Oktober, Freitag

    Zeit Temperatur Niederschläge Wind Luftdruck Luftfeuchtigkeit
    00:00 +12°C° 0 mm 2 m/S 708 mmHg 69%
    01:00 +11°C° 0 mm 1 m/S 708 mmHg 68%
    02:00 +10°C° 0 mm 2 m/S 708 mmHg 70%
    03:00 +10°C° 0 mm 2 m/S 709 mmHg 72%
    04:00 +10°C° 0 mm 2 m/S 709 mmHg 75%
    05:00 +10°C° 0 mm 2 m/S 709 mmHg 75%
    06:00 +10°C° 0 mm 2 m/S 709 mmHg 75%
    07:00 +9°C° 0 mm 2 m/S 709 mmHg 76%
    08:00 +13°C° 0 mm 2 m/S 709 mmHg 71%
    09:00 +15°C° 0 mm 2 m/S 710 mmHg 66%
    10:00 +18°C° 0 mm 1 m/S 710 mmHg 60%
    11:00 +18°C° 0 mm 2 m/S 710 mmHg 58%
    12:00 +19°C° 0 mm 2 m/S 710 mmHg 56%
    13:00 +19°C° 0 mm 2 m/S 711 mmHg 54%
    14:00 +19°C° 0 mm 2 m/S 711 mmHg 59%
    15:00 +18°C° 0 mm 2 m/S 711 mmHg 64%
    16:00 +17°C° 0 mm 2 m/S 710 mmHg 69%
    17:00 +15°C° 0 mm 2 m/S 711 mmHg 74%
    18:00 +14°C° 0 mm 2 m/S 711 mmHg 79%
    19:00 +12°C° 0 mm 2 m/S 711 mmHg 84%
    20:00 +12°C° 0 mm 2 m/S 711 mmHg 84%
    21:00 +12°C° 0 mm 2 m/S 711 mmHg 84%
    22:00 +12°C° 0 mm 2 m/S 711 mmHg 84%
    23:00 +12°C° 0 mm 2 m/S 711 mmHg 83%

    Morgen, 21 Oktober, Samstag

    Zeit Temperatur Niederschläge Wind Luftdruck Luftfeuchtigkeit
    00:00 +12°C° 0 mm 2 m/S 711 mmHg 81%
    01:00 +12°C° 0 mm 2 m/S 711 mmHg 80%
    02:00 +12°C° 0 mm 2 m/S 711 mmHg 78%
    03:00 +12°C° 0 mm 2 m/S 711 mmHg 76%
    04:00 +12°C° 0 mm 2 m/S 711 mmHg 75%
    05:00 +12°C° 0 mm 2 m/S 711 mmHg 72%
    06:00 +12°C° 0 mm 2 m/S 711 mmHg 69%
    07:00 +12°C° 0 mm 2 m/S 711 mmHg 66%
    08:00 +14°C° 0 mm 2 m/S 711 mmHg 63%
    09:00 +16°C° 0 mm 2 m/S 711 mmHg 61%
    10:00 +17°C° 0 mm 2 m/S 711 mmHg 58%
    11:00 +18°C° 0 mm 2 m/S 711 mmHg 56%
    12:00 +19°C° 0 mm 2 m/S 710 mmHg 54%
    13:00 +20°C° 0 mm 3 m/S 710 mmHg 52%
    14:00 +19°C° 0 mm 2 m/S 710 mmHg 58%
    15:00 +19°C° 0 mm 2 m/S 710 mmHg 63%
    16:00 +19°C° 0 mm 1 m/S 710 mmHg 69%
    17:00 +16°C° 0 mm 2 m/S 710 mmHg 73%
    18:00 +15°C° 0 mm 2 m/S 710 mmHg 78%
    19:00 +13°C° 0 mm 2 m/S 710 mmHg 82%
    20:00 +13°C° 0,7 mm 2 m/S 710 mmHg 86%
    21:00 +11°C° 0,7 mm 3 m/S 711 mmHg 89%
    22:00 +11°C° 0,7 mm 4 m/S 711 mmHg 93%
    23:00 +10°C° 1,1 mm 3 m/S 711 mmHg 94%

    übermorgen, 22 Oktober, Sonntag

    Zeit Temperatur Niederschläge Wind Luftdruck Luftfeuchtigkeit
    00:00 +10°C° 1,1 mm 3 m/S 711 mmHg 95%
    01:00 +9°C° 1,1 mm 3 m/S 711 mmHg 95%
    02:00 +9°C° 0,6 mm 3 m/S 711 mmHg 95%
    03:00 +9°C° 0,6 mm 3 m/S 711 mmHg 95%
    04:00 +8°C° 0,6 mm 3 m/S 710 mmHg 94%
    05:00 +8°C° 0,7 mm 3 m/S 710 mmHg 94%
    06:00 +8°C° 0,7 mm 2 m/S 710 mmHg 94%
    07:00 +8°C° 0,7 mm 2 m/S 710 mmHg 95%
    08:00 +8°C° 0,8 mm 2 m/S 710 mmHg 93%
    09:00 +8°C° 0,8 mm 3 m/S 710 mmHg 91%
    10:00 +8°C° 0,8 mm 3 m/S 711 mmHg 89%
    11:00 +8°C° 0,7 mm 3 m/S 710 mmHg 88%
    12:00 +8°C° 0,7 mm 3 m/S 710 mmHg 86%
    13:00 +8°C° 0,7 mm 3 m/S 710 mmHg 84%
    14:00 +8°C° 0,7 mm 3 m/S 710 mmHg 85%
    15:00 +8°C° 0,7 mm 3 m/S 710 mmHg 85%
    16:00 +8°C° 0,7 mm 3 m/S 710 mmHg 86%
    17:00 +7°C° 0,5 mm 3 m/S 710 mmHg 88%
    18:00 +5°C° 0,5 mm 3 m/S 710 mmHg 90%
    19:00 +5°C° 0,5 mm 3 m/S 711 mmHg 93%
    20:00 +4°C° 0,3 mm 3 m/S 711 mmHg 93%
    21:00 +4°C° 0,3 mm 3 m/S 711 mmHg 94%
    22:00 +4°C° 0,3 mm 3 m/S 711 mmHg 94%
    23:00 +4°C° 0,3 mm 3 m/S 711 mmHg 94%

    23 Oktober, Montag

    Zeit Temperatur Niederschläge Wind Luftdruck Luftfeuchtigkeit
    00:00 +4°C° 0,3 mm 4 m/S 711 mmHg 95%
    01:00 +4°C° 0,3 mm 4 m/S 711 mmHg 95%
    02:00 +4°C° 0,3 mm 4 m/S 711 mmHg 95%
    03:00 +4°C° 0,3 mm 4 m/S 711 mmHg 95%
    04:00 +4°C° 0,3 mm 4 m/S 711 mmHg 94%
    05:00 +4°C° 0,6 mm 4 m/S 711 mmHg 95%
    06:00 +4°C° 0,6 mm 4 m/S 711 mmHg 95%
    07:00 +4°C° 0,6 mm 4 m/S 711 mmHg 95%
    08:00 +5°C° 0,7 mm 4 m/S 711 mmHg 95%
    09:00 +5°C° 0,7 mm 4 m/S 711 mmHg 95%
    10:00 +5°C° 0,7 mm 4 m/S 711 mmHg 94%
    11:00 +6°C° 0,4 mm 4 m/S 711 mmHg 93%
    12:00 +6°C° 0,4 mm 4 m/S 712 mmHg 91%
    13:00 +7°C° 0,4 mm 4 m/S 712 mmHg 90%
    14:00 +7°C° 0,4 mm 4 m/S 712 mmHg 90%
    15:00 +8°C° 0,4 mm 3 m/S 712 mmHg 90%
    16:00 +8°C° 0,4 mm 3 m/S 712 mmHg 91%
    17:00 +8°C° 0,3 mm 3 m/S 712 mmHg 92%
    18:00 +7°C° 0,3 mm 3 m/S 713 mmHg 94%
    19:00 +7°C° 0,3 mm 3 m/S 713 mmHg 96%
    20:00 +7°C° 0,3 mm 3 m/S 713 mmHg 96%
    21:00 +7°C° 0,3 mm 3 m/S 713 mmHg 96%
    22:00 +7°C° 0,3 mm 3 m/S 713 mmHg 96%
    23:00 +7°C° 0,3 mm 3 m/S 713 mmHg 96%

    24 Oktober, Dienstag

    Zeit Temperatur Niederschläge Wind Luftdruck Luftfeuchtigkeit
    00:00 +7°C° 0,3 mm 3 m/S 713 mmHg 96%
    01:00 +7°C° 0,3 mm 3 m/S 713 mmHg 96%
    02:00 +7°C° 0,6 mm 3 m/S 713 mmHg 96%
    03:00 +7°C° 0,6 mm 3 m/S 713 mmHg 95%
    04:00 +7°C° 0,6 mm 3 m/S 712 mmHg 95%
    05:00 +7°C° 0,8 mm 3 m/S 712 mmHg 95%
    06:00 +7°C° 0,8 mm 3 m/S 712 mmHg 95%
    07:00 +7°C° 0,8 mm 3 m/S 713 mmHg 96%
    08:00 +8°C° 0,3 mm 3 m/S 713 mmHg 95%
    09:00 +9°C° 0,3 mm 3 m/S 713 mmHg 95%
    10:00 +9°C° 0,3 mm 2 m/S 713 mmHg 94%
    11:00 +10°C° 0,4 mm 2 m/S 713 mmHg 95%
    12:00 +10°C° 0,4 mm 3 m/S 713 mmHg 95%
    13:00 +10°C° 0,4 mm 3 m/S 713 mmHg 95%
    14:00 +10°C° 0,4 mm 3 m/S 714 mmHg 96%
    15:00 +10°C° 0,4 mm 3 m/S 714 mmHg 96%
    16:00 +10°C° 0,4 mm 3 m/S 714 mmHg 96%
    17:00 +10°C° 0 mm 2 m/S 714 mmHg 97%
    18:00 +10°C° 0 mm 2 m/S 715 mmHg 97%
    19:00 +10°C° 0 mm 2 m/S 715 mmHg 97%
    20:00 +10°C° 0 mm 2 m/S 715 mmHg 97%
    21:00 +10°C° 0 mm 2 m/S 715 mmHg 97%
    22:00 +10°C° 0 mm 2 m/S 715 mmHg 97%
    23:00 +9°C° 0 mm 2 m/S 715 mmHg 97%

    25 Oktober, Mittwoch

    Zeit Temperatur Niederschläge Wind Luftdruck Luftfeuchtigkeit
    00:00 +10°C° 0 mm 1 m/S 715 mmHg 97%
    01:00 +10°C° 0 mm 1 m/S 715 mmHg 97%
    02:00 +10°C° 0 mm 1 m/S 715 mmHg 97%
    03:00 +9°C° 0 mm 1 m/S 715 mmHg 96%
    04:00 +9°C° 0 mm 1 m/S 715 mmHg 96%
    05:00 +9°C° 0 mm 1 m/S 715 mmHg 96%
    06:00 +9°C° 0 mm 1 m/S 715 mmHg 95%
    07:00 +8°C° 0 mm 1 m/S 715 mmHg 95%
    08:00 +10°C° 0 mm 1 m/S 716 mmHg 92%
    09:00 +12°C° 0 mm 1 m/S 716 mmHg 90%
    10:00 +14°C° 0 mm 1 m/S 716 mmHg 87%
    11:00 +15°C° 0 mm 1 m/S 716 mmHg 83%
    12:00 +16°C° 0 mm 1 m/S 716 mmHg 79%
    13:00 +18°C° 0 mm 1 m/S 716 mmHg 75%
    14:00 +18°C° 0 mm 1 m/S 716 mmHg 78%
    15:00 +16°C° 0 mm 1 m/S 716 mmHg 81%
    16:00 +16°C° 0 mm 1 m/S 716 mmHg 84%
    17:00 +14°C° 0 mm 1 m/S 716 mmHg 86%
    18:00 +13°C° 0 mm 1 m/S 716 mmHg 88%
    19:00 +11°C° 0 mm 1 m/S 716 mmHg 90%
    20:00 +11°C° 0 mm 1 m/S 716 mmHg 89%
    21:00 +10°C° 0 mm 1 m/S 716 mmHg 89%
    22:00 +10°C° 0 mm 1 m/S 716 mmHg 88%
    23:00 +10°C° 0 mm 1 m/S 716 mmHg 87%
    Mehr zeigen